Terminal Aerodrome Forecast
Issued by NWS Detroit/Pontiac, MI

Home | Current Version | Previous Version | Text Only | Print | Product List | Glossary On
Versions: 1 2 3 4 5 6 7 8 9 10 11 12 13 14 15 16 17 18 19 20 21 22 23
000
FTUS43 KDTX 012332
TAFFNT
TAF
KFNT 012332Z 0200/0224 05015G25KT 3/4SM -SN BLSN VV015
      TEMPO 0200/0203 1/4SM +SN BLSN VV008
     FM020300 03015G25KT 3/4SM -SN BLSN VV007
     FM020800 03015G25KT 2SM -SN OVC010
     FM021100 34015KT P6SM OVC015
     FM021500 30012KT P6SM BKN035=

USA.gov is the U.S. government's official web portal to all federal, state and local government web resources and services.